GSAT0220 (GALILEO 24) (43567 NORAD) Tracking and Keplerian Element Data

This shows tracking and keplerian element data for the satellite.

Feedback or suggestion? Click here.




ElementValue
Catalog43567
NameGSAT0220 (GALILEO 24)
Epoch Orbit460
Epoch Day111.31802668
Epoch Year2019
RAAN52.667
Inclination56.5263
Eccentricity0.0005103
Argument of Perigee295.6943
Mean Anonmoly64.219
Mean Motion1.70475619
Decay Rate-7.5E-07
L11 43567U 18060D 19111.31802668 -.00000075 00000-0 00000+0 0 9999
L22 43567 56.5263 52.6670 0005103 295.6943 64.2190 1.70475619 4609

Live tracking and technical data element details for GSAT0220 (GALILEO 24) (NORAD 43567). GSAT0220 (GALILEO 24) can be tracked NOW for your location showing map with azimuth and elevation plus other details from your city location.

Track the satellite on the map from your city or location and see movement details for azimuth, elevation, latitude, longitude, range, height, and movement on the map or in text.







IsCatalogInMostPopularTable: catalog: 43567, numindb: 116
Update: records affected: 1



GetName: 43567 GSAT0220 (GALILEO 24)

Hit Count: updated at: Tue, 23 Apr 2019 20:34:51 GMT